Aéroport int. de Vancouver, Colombie-Britannique

Conditions des dernières 24 heures

Date / Heure
(HAP)
Conditions Temp
(°F)
Humidité
(%)
Point de rosée
(°F)
Vent
(mph)
Pression (pouces) Vis
(mi)
Humidex
02 août 2015
1:00 Généralement dégagé 66 88 62 O 8 29.9 20 *
0:00 Partiellement nuageux 67 82 62 ONO 4 29.9 30 *
01 août 2015
23:00 Partiellement nuageux 67 80 61 N 3 29.9 30 *
22:00 Partiellement nuageux 68 82 62 O 7 29.9 30 *
21:00 Partiellement nuageux 69 80 63 SO 5 29.9 30 79
20:00 Généralement ensoleillé 70 76 62 SO 5 29.9 30 79
19:00 Généralement ensoleillé 73 66 62 O 7 29.9 30 82
18:00 Partiellement nuageux 74 67 62 ONO 12 29.9 30 83
17:00 Partiellement nuageux 75   62 61 ONO 11 29.9 30 84
16:00 Partiellement nuageux 75   61 61 ONO 8 29.9 30 84
15:00 Partiellement nuageux 75   60 60 O 8 30.0 30 83
14:00 Partiellement nuageux 74 64 62 ONO 11 30.0 30 83
13:00 Généralement nuageux 72 69 62 ONO 11 30.0 30 81
12:00 Généralement nuageux 72 70 62 ONO 13 30.0 30 81
11:00 Partiellement nuageux 70 74 62 ONO 15 30.0 30 79
10:00 Partiellement nuageux 70 73 61 ONO 15 30.0 30 78
9:00 Généralement ensoleillé 69 74 60 ONO 15 30.0 30 76
8:00 Généralement ensoleillé 68 78 60 ONO 12 30.0 30 *
7:00 Généralement ensoleillé 66 83 61 ONO 13 30.0 30 *
6:00 Ensoleillé 65 82 60 ONO 18 30.0 30 *
5:00 Dégagé 64 87 60 NO 9 30.0 30 *
4:00 Dégagé 65 87 61 NO 11 30.0 30 *
3:00 Dégagé 63   88 59 NO 7 30.0 30 *
2:00 Dégagé 65 87 61 ONO 10 30.0 30 *
1:00 Dégagé 66 89 63 ONO 8 30.0 30 *
N.D. non disponible
↑ température la plus haute
↓ température la plus basse
* Valeur non significative.

Si vous désirez plus de données historiques sur les conditions météo, s.v.p. visitez Données climatologiques en ligne.

Ce que nous faisons

Date de modification :